User: anonymous
Location: Unspecified
(0.0000°N, 0.0000°E)
Time: 13:42:31
(UTC+00:00)
Language:

STSS DEMO 2 (USA 209) - Orbit

View from above orbital plane
View from above orbital plane
View from above satellite
View from above satellite

Ground track
Ground track

The orbit data is extracted from the following two-line orbital elements,

1 35938U 09052B   14253.83580070 0.00000000  00000-0  00000-0 0    03
2 35938  57.9846 235.2841 0012652  12.8685 347.1314 12.79134481    03
Epoch (UTC): 10 September 2014 20:03:33
Eccentricity: 0.0012652
inclination: 57.9846°
perigee height: 1335 km
apogee height: 1355 km
right ascension of ascending node: 235.2841°
argument of perigee: 12.8685°
revolutions per day: 12.79134481
mean anomaly at epoch: 347.1314°
orbit number at epoch: 0

The dashed part of the orbit path shows where the satellite is in the earth's shadow,  

DLR